Weather observations for the past three days for
Manistee County - Blacker Airport
| Date | Time (edt) | Wind (mph) | Vis. (mi.) | Weather | Sky Cond. | Temperature (ºF) | Relative Humidity | Wind Chill (°F) | Heat Index (°F) | Pressure | Precipitation (in) | ||||||
|---|---|---|---|---|---|---|---|---|---|---|---|---|---|---|---|---|---|
| Air | Dwpt | 6 hour | altimeter (in) | sea level (mb) | 1 hr | 3 hr | 6 hr | ||||||||||
| Max. | Min. | ||||||||||||||||
| 08 | 01:56 | Calm | 10.00 | Fair | CLR | 30 | 28 | 45 | 30 | 92% | 29.87 | 1011.9 | |||||
| 08 | 00:56 | Calm | 10.00 | Fair | CLR | 32 | 30 | 92% | 29.87 | 1012.0 | |||||||
| 07 | 23:56 | Calm | 10.00 | Fair | CLR | 36 | 32 | 86% | 29.87 | 1011.9 | |||||||
| 07 | 22:56 | Calm | 10.00 | Partly Cloudy | SCT090 | 39 | 34 | 82% | 29.87 | 1012.0 | |||||||
| 07 | 21:56 | Calm | 10.00 | Overcast | OVC085 | 43 | 33.1 | 68% | 29.86 | 1011.8 | |||||||
| 07 | 20:56 | SW 5 | 10.00 | Mostly Cloudy | BKN085 | 43 | 32 | 65% | 41 | 29.85 | 1011.4 | ||||||
| 07 | 19:56 | NW 5 | 10.00 | Partly Cloudy | SCT085 | 45 | 30.9 | 50 | 45 | 58% | 43 | 29.85 | 1011.4 | ||||
| 07 | 18:56 | W 6 | 10.00 | Mostly Cloudy | BKN090 | 48 | 27 | 44% | 46 | 29.85 | 1011.5 | ||||||
| 07 | 17:56 | W 10 | 10.00 | Fair | CLR | 48.9 | 26.1 | 41% | 45 | 29.86 | 1011.7 | ||||||
| 07 | 16:56 | W 9 | 10.00 | Mostly Cloudy | BKN065 | 48 | 24.1 | 39% | 44 | 29.87 | 1012.0 | ||||||
| 07 | 15:56 | W 10 | 10.00 | Fair | CLR | 48.9 | 24.1 | 38% | 45 | 29.88 | 1012.3 | ||||||
| 07 | 14:56 | W 10 G 16 | 10.00 | Fair | CLR | 48 | 26.1 | 42% | 44 | 29.89 | 1012.6 | ||||||
| 07 | 13:56 | SW 9 G 22 | 10.00 | Fair | CLR | 46.9 | 25 | 48 | 36 | 42% | 43 | 29.89 | 1012.9 | ||||
| 07 | 12:56 | W 9 | 10.00 | Overcast | OVC060 | 46 | 28 | 50% | 42 | 29.92 | 1013.7 | ||||||
| 07 | 11:56 | W 10 | 10.00 | Overcast | OVC065 | 42.1 | 30 | 62% | 37 | 29.94 | 1014.3 | ||||||
| 07 | 10:56 | W 9 | 10.00 | Overcast | OVC065 | 42.1 | 30.9 | 65% | 37 | 29.94 | 1014.2 | ||||||
| 07 | 09:56 | W 8 | 10.00 | Overcast | OVC065 | 43 | 30 | 60% | 39 | 29.94 | 1014.3 | ||||||
| 07 | 08:56 | SW 7 | 10.00 | Mostly Cloudy | BKN065 | 44.1 | 33.1 | 65% | 41 | 29.93 | 1014.0 | ||||||
| 07 | 07:56 | Calm | 10.00 | Fair | CLR | 35.1 | 34 | 39.9 | 27 | 96% | 29.92 | 1014.0 | |||||
| 07 | 06:56 | Calm | 10.00 | Fair | CLR | 28.9 | 27 | 92% | 29.91 | 1013.2 | |||||||
| 07 | 05:56 | Calm | 10.00 | Fair | CLR | 28 | 25 | 88% | 29.9 | 1013.1 | |||||||
| 07 | 04:56 | Calm | 10.00 | Fair | CLR | 30 | 28 | 92% | 29.9 | 1013.2 | |||||||
| 07 | 03:56 | Calm | 10.00 | Partly Cloudy | SCT070 | 36 | 30 | 79% | 29.91 | 1013.5 | |||||||
| 07 | 02:56 | SE 3 | 10.00 | Overcast | OVC080 | 37.9 | 30.9 | 76% | 29.92 | 1013.7 | |||||||
| 07 | 01:56 | E 5 | 10.00 | Overcast | OVC080 | 39 | 30.9 | 45 | 37.9 | 73% | 36 | 29.93 | 1014.0 | ||||
| 07 | 00:56 | E 5 | 10.00 | Overcast | OVC080 | 39.9 | 32 | 73% | 37 | 29.93 | 1014.0 | ||||||
| 06 | 23:56 | Calm | 10.00 | Overcast | FEW060 OVC085 | 41 | 32 | 70% | 29.92 | 1013.8 | |||||||
| 06 | 22:56 | NW 3 | 10.00 | Overcast | BKN060 OVC075 | 44.1 | 28.9 | 55% | 29.93 | 1013.9 | |||||||
| 06 | 21:56 | SW 3 | 10.00 | Overcast | SCT065 OVC095 | 44.1 | 28.9 | 55% | 29.92 | 1013.5 | |||||||
| 06 | 20:56 | W 5 | 10.00 | Overcast | OVC090 | 44.1 | 28 | 53% | 42 | 29.91 | 1013.3 | ||||||
| 06 | 19:56 | W 5 | 10.00 | Overcast | OVC090 | 46 | 28 | 51.1 | 46 | 50% | 44 | 29.9 | 1013.2 | ||||
| 06 | 18:56 | W 8 | 10.00 | Overcast | OVC080 | 46.9 | 28 | 48% | 44 | 29.91 | 1013.3 | ||||||
| 06 | 17:56 | W 10 | 10.00 | Overcast | OVC080 | 48 | 27 | 44% | 44 | 29.91 | 1013.5 | ||||||
| 06 | 16:56 | W 10 | 10.00 | Overcast | OVC075 | 48 | 27 | 44% | 44 | 29.91 | 1013.5 | ||||||
| 06 | 15:56 | W 12 G 18 | 10.00 | Overcast | OVC070 | 50 | 26.1 | 39% | 46 | 29.91 | 1013.3 | ||||||
| 06 | 14:56 | W 10 G 17 | 10.00 | Fair | CLR | 48.9 | 26.1 | 41% | 45 | 29.91 | 1013.4 | ||||||
| 06 | 13:56 | W 12 G 17 | 10.00 | Overcast | OVC070 | 48.9 | 25 | 48.9 | 36 | 39% | 45 | 29.92 | 1013.7 | ||||
| 06 | 12:56 | NW 9 | 10.00 | Overcast | OVC070 | 46.9 | 23 | 39% | 43 | 29.93 | 1014.1 | ||||||
| 06 | 11:56 | NW 9 | 10.00 | Overcast | OVC075 | 46 | 24.1 | 42% | 42 | 29.93 | 1014.2 | ||||||
| 06 | 10:56 | W 6 | 10.00 | Overcast | OVC075 | 46 | 23 | 40% | 44 | 29.92 | 1013.8 | ||||||
| 06 | 09:56 | NE 5 | 10.00 | Partly Cloudy | SCT055 | 44.1 | 24.1 | 45% | 42 | 29.92 | 1013.6 | ||||||
| 06 | 08:56 | E 7 | 10.00 | Fair | CLR | 41 | 25 | 53% | 37 | 29.9 | 1013.1 | ||||||
| 06 | 07:56 | E 3 | 10.00 | Overcast | OVC070 | 36 | 28.9 | 37.9 | 30.9 | 76% | 29.9 | 1013.0 | |||||
| 06 | 06:56 | E 3 | 10.00 | Overcast | OVC075 | 33.1 | 28 | 82% | 29.88 | 1012.4 | |||||||
| 06 | 05:56 | Calm | 10.00 | Fair | CLR | 33.1 | 28 | 82% | 29.87 | 1012.1 | |||||||
| 06 | 04:56 | NE 3 | 10.00 | Fair | CLR | 34 | 28 | 79% | 29.86 | 1011.4 | |||||||
| 06 | 03:56 | Vrbl 3 | 10.00 | A Few Clouds | FEW070 | 37 | 28.9 | 73% | 29.86 | 1011.4 | |||||||
| 06 | 02:56 | NE 3 | 10.00 | Overcast | OVC075 | 37.9 | 32 | 79% | 29.85 | 1011.1 | |||||||
| 06 | 01:56 | Calm | 10.00 | Mostly Cloudy | BKN070 | 37 | 30.9 | 48.9 | 35.1 | 79% | 29.86 | 1011.5 | |||||
| 06 | 00:56 | Calm | 10.00 | Fair | CLR | 36 | 34 | 93% | 29.83 | 1010.6 | |||||||
| 05 | 23:56 | W 3 | 10.00 | Fair | CLR | 39 | 33.1 | 79% | 29.82 | 1010.3 | |||||||
| 05 | 22:56 | NW 8 | 10.00 | Fair | CLR | 43 | 30 | 60% | 39 | 29.81 | 1009.9 | ||||||
| 05 | 21:56 | NW 10 | 10.00 | Fair | CLR | 45 | 27 | 49% | 40 | 29.8 | 1009.4 | ||||||
| 05 | 20:56 | W 12 | 10.00 | Mostly Cloudy | BKN075 | 46 | 28 | 50% | 41 | 29.78 | 1008.9 | ||||||
| 05 | 19:56 | W 10 | 10.00 | Overcast | OVC070 | 48.9 | 30 | 54 | 48.9 | 48% | 45 | 29.78 | 1008.6 | ||||
| 05 | 18:56 | W 14 | 10.00 | Mostly Cloudy | BKN070 | 52 | 27 | 38% | 29.76 | 1008.1 | |||||||
| 05 | 17:56 | W 9 | 10.00 | Fair | CLR | 53.1 | 26.1 | 35% | 29.76 | 1008.0 | |||||||
| 05 | 16:56 | W 12 | 10.00 | Fair | CLR | 53.1 | 28.9 | 40% | 29.76 | 1008.1 | |||||||
| 05 | 15:56 | W 13 G 20 | 10.00 | Fair | CLR | 53.1 | 27 | 37% | 29.76 | 1007.9 | |||||||
| 05 | 14:56 | W 12 G 18 | 10.00 | Fair | CLR | 52 | 28.9 | 41% | 29.75 | 1007.7 | |||||||
| 05 | 13:56 | W 13 G 18 | 10.00 | Fair | CLR | 52 | 28 | 52 | 44.1 | 40% | 29.74 | 1007.5 | |||||
| 05 | 12:56 | W 12 G 18 | 10.00 | Fair | CLR | 50 | 28 | 43% | 46 | 29.74 | 1007.3 | ||||||
| 05 | 11:56 | W 16 | 10.00 | Fair | CLR | 50 | 26.1 | 39% | 45 | 29.74 | 1007.5 | ||||||
| 05 | 10:56 | W 17 | 10.00 | Fair | CLR | 50 | 27 | 41% | 45 | 29.73 | 1007.0 | ||||||
| 05 | 09:56 | W 15 | 10.00 | Fair | CLR | 48 | 28.9 | 48% | 43 | 29.73 | 1007.1 | ||||||
| 05 | 08:56 | W 14 | 10.00 | Fair | CLR | 46 | 28 | 50% | 40 | 29.71 | 1006.2 | ||||||
| 05 | 07:56 | W 12 | 10.00 | Overcast | SCT050 OVC060 | 44.1 | 28.9 | 50 | 43 | 55% | 39 | 29.69 | 1005.5 | ||||
| 05 | 06:56 | W 9 | 10.00 | Overcast | OVC050 | 43 | 33.1 | 68% | 38 | 29.67 | 1004.7 | ||||||
| 05 | 05:56 | NW 5 | 10.00 | Overcast | OVC055 | 45 | 33.1 | 63% | 43 | 29.64 | 1003.8 | ||||||
| 05 | 04:56 | N 5 | 10.00 | Mostly Cloudy | BKN065 | 45 | 33.1 | 63% | 43 | 29.61 | 1002.6 | ||||||
| 05 | 03:56 | NW 5 | 10.00 | Partly Cloudy | SCT070 | 46 | 36 | 68% | 44 | 29.58 | 1001.9 | ||||||
| 05 | 02:56 | N 5 | 10.00 | A Few Clouds | FEW070 | 48 | 36 | 63% | 47 | 29.57 | 1001.3 | ||||||
| Date | Time (edt) | Wind (mph) | Vis. (mi.) | Weather | Sky Cond. | Air | Dwpt | Max. | Min. | Relative Humidity | Wind Chill (°F) | Heat Index (°F) | altimeter (in) | sea level (mb) | 1 hr | 3 hr | 6 hr |
| 6 hour | |||||||||||||||||
| Temperature (ºF) | Pressure | Precipitation (in) | |||||||||||||||